TimeEST,TemperatureF,Dew PointF,Humidity,Sea Level PressureIn,VisibilityMPH,Wind Direction,Wind SpeedMPH,Gust SpeedMPH,PrecipitationIn,Events,Conditions,WindDirDegrees,DateUTC
12:53 AM,30.9,23.0,72,30.35,10.0,SE,5.8,-,N/A,,Clear,130,2012-12-13 05:53:00
1:53 AM,28.9,21.9,75,30.35,10.0,SE,4.6,-,N/A,,Clear,130,2012-12-13 06:53:00
2:53 AM,27.0,21.9,81,30.36,10.0,SE,4.6,-,N/A,,Clear,130,2012-12-13 07:53:00
3:53 AM,27.0,21.9,81,30.38,10.0,Calm,Calm,-,N/A,,Clear,0,2012-12-13 08:53:00
4:53 AM,27.0,21.0,78,30.38,9.0,SSE,3.5,-,N/A,,Clear,160,2012-12-13 09:53:00
5:53 AM,28.0,24.1,85,30.39,10.0,SSE,3.5,-,N/A,,Clear,160,2012-12-13 10:53:00
6:53 AM,27.0,21.9,81,30.40,10.0,SSE,3.5,-,N/A,,Clear,160,2012-12-13 11:53:00
7:53 AM,27.0,23.0,85,30.40,9.0,SSE,4.6,-,N/A,,Clear,160,2012-12-13 12:53:00
8:53 AM,30.9,25.0,79,30.40,10.0,Calm,Calm,-,N/A,,Clear,0,2012-12-13 13:53:00
9:53 AM,35.1,27.0,72,30.40,10.0,SSW,5.8,-,N/A,,Clear,210,2012-12-13 14:53:00
10:53 AM,37.0,28.0,70,30.39,10.0,South,9.2,-,N/A,,Clear,190,2012-12-13 15:53:00
11:53 AM,39.9,28.9,65,30.37,10.0,SSW,10.4,-,N/A,,Clear,200,2012-12-13 16:53:00
12:53 PM,43.0,28.0,56,30.34,10.0,South,9.2,-,N/A,,Clear,190,2012-12-13 17:53:00
1:53 PM,45.0,28.0,52,30.32,10.0,South,9.2,-,N/A,,Clear,180,2012-12-13 18:53:00
2:53 PM,46.9,28.0,48,30.30,10.0,SSW,8.1,-,N/A,,Clear,200,2012-12-13 19:53:00
3:53 PM,46.9,25.0,42,30.28,10.0,South,9.2,-,N/A,,Clear,180,2012-12-13 20:53:00
4:53 PM,44.1,28.0,53,30.27,10.0,South,10.4,-,N/A,,Clear,170,2012-12-13 21:53:00
8:53 PM,39.0,24.1,55,30.25,10.0,South,9.2,-,N/A,,Clear,170,2012-12-14 01:53:00
9:53 PM,37.9,23.0,55,30.24,10.0,South,9.2,-,N/A,,Clear,180,2012-12-14 02:53:00
10:53 PM,37.9,24.1,57,30.24,10.0,South,11.5,-,N/A,,Clear,180,2012-12-14 03:53:00
11:53 PM,36.0,24.1,62,30.25,10.0,South,9.2,-,N/A,,Clear,180,2012-12-14 04:53:00